Regional Weather Roundup
Issued by NWS

Home | Current Version | Previous Version | Graphics & Text | Print | Product List | Glossary Off
Versions: 1 2 3 4 5 6 7 8 9 10 11 12 13 14 15 16 17 18 19 20 21 22 23 24 25 26 27 28 29 30 31 32 33 34 35 36 37 38 39 40 41 42 43 44 45 46 47 48 49 50

656
ASUS43 KMKX 231200
RWRWI

WISCONSIN REGIONAL WEATHER ROUNDUP
NATIONAL WEATHER SERVICE MILWAUKEE/SULLIVAN WI
700 AM CDT SAT SEP 23 2017

NOTE: "FAIR" INDICATES FEW OR NO CLOUDS BELOW 12,000 FEET WITH NO
SIGNIFICANT WEATHER AND/OR OBSTRUCTIONS TO VISIBILITY.

WIZ001-002-006>008-014>016-023>028-231300-
NORTHWEST WISCONSIN

CITY           SKY/WX    TMP DP  RH WIND       PRES   REMARKS
SUPERIOR ARPT  MOCLDY    63  63  99 CALM      29.87S
ASHLAND        CLOUDY    74  67  78 S10       29.90S
6HR MIN TEMP:  74; 6HR MAX TEMP:  78;

HAYWARD        PTCLDY    73  66  78 S8        29.95R
6HR MIN TEMP:  72; 6HR MAX TEMP:  77;

SIREN          PTCLDY    72  66  80 S8        29.91S
CUMBERLAND     CLEAR     68  64  88 S6        29.95F
RICE LAKE      CLEAR     68  65  90 CALM      29.97S
CHETEK         CLEAR     68  66  93 SE3       29.96S
LADYSMITH      PTCLDY    72  66  81 S7        30.00S
EAU CLAIRE     NOT AVBL
MENOMONIE      CLEAR     69  65  89 E5        29.96S
NEW RICHMOND   CLEAR     71  65  80 SE5       29.94S
OSCEOLA        CLEAR     71  66  86 SE8       29.94F
$$

WIZ003>005-009-010-017-018-231300-
NORTH CENTRAL WISCONSIN

CITY           SKY/WX    TMP DP  RH WIND       PRES   REMARKS
MANITOWISH WTR NOT AVBL
ARBOR VITAE    PTCLDY    69  67  90 S7        30.01F
WOODRUFF       PTCLDY    69  67  90 S7        30.01F
RHINELANDER    CLEAR     70  65  84 SW9       30.04S
6HR MIN TEMP:  69; 6HR MAX TEMP:  74;

EAGLE RIVER    CLOUDY    67  65  94 S6        30.02F
LAND O LAKES   PTCLDY    68  65  89 S3        30.03R
PHILLIPS       CLEAR     68  67  97 S5        30.00S
TOMAHAWK       PTCLDY    64  62  94 CALM      30.04S
MEDFORD        CLEAR     64  62  94 S7        30.03S
MERRILL        CLEAR     68  65  91 S3        30.05S
$$

WIZ029-030-035-036-043>047-231300-
CENTRAL WISCONSIN

CITY           SKY/WX    TMP DP  RH WIND       PRES   REMARKS
WAUSAU         CLEAR     67  65  93 S6        30.03S
6HR MIN TEMP:  65; 6HR MAX TEMP:  75;

MOSINEE        PTCLDY    63  63 100 SE5       30.06R
MARSHFIELD     CLEAR     65  61  87 S5        30.04S
6HR MIN TEMP:  64; 6HR MAX TEMP:  71;

STEVENS POINT  CLEAR     66  64  92 CALM      30.06R
WAUPACA        CLEAR     64  63  97 CALM      30.05R FOG
WAUTOMA        CLEAR     60  59  96 CALM      30.06R
6HR MIN TEMP:  60; 6HR MAX TEMP:  72;

WISC RAPIDS    CLEAR     68  64  87 CALM      30.06R
6HR MIN TEMP:  67; 6HR MAX TEMP:  76;

CAMP DOUGLAS   NOT AVBL
$$

WIZ011>013-019>022-031-037>040-048>050-231300-
NORTHEAST WISCONSIN

CITY           SKY/WX    TMP DP  RH WIND       PRES   REMARKS
ANTIGO         CLEAR     65  63  94 SW6       30.06S
SHAWANO        PTCLDY    67  64  90 CALM      30.04R
OCONTO           N/A     61  60  97 CALM      30.02R VSB 1/4
STURGEON BAY   CLEAR     71  64  78 SW8       30.05R
6HR MIN TEMP:  70; 6HR MAX TEMP:  74;

GREEN BAY      CLEAR     67  66  97 CALM      30.04R
6HR MIN TEMP:  65; 6HR MAX TEMP:  72;

MANITOWOC      CLEAR     65  63  93 SE3       30.06R FOG
6HR MIN TEMP:  64; 6HR MAX TEMP:  75;

APPLETON       PTCLDY    68  61  77 SW5       30.04R
CLINTONVILLE   CLEAR     64  63  94 SW3       30.04S
OSHKOSH        CLEAR     66  64  93 S7        30.05R
6HR MIN TEMP:  66; 6HR MAX TEMP:  73;

$$

WIZ032>034-041-042-053>061-231300-
SOUTHWEST WISCONSIN

CITY           SKY/WX    TMP DP  RH WIND       PRES   REMARKS
LA CROSSE      CLEAR     72  66  81 SE6       30.00R
6HR MIN TEMP:  71; 6HR MAX TEMP:  80;

SPARTA         CLEAR     66  63  89 CALM      30.03R
VIROQUA        CLEAR     70  65  85 S6        30.04R
BOSCOBEL       PTCLDY    64  62  93 CALM      30.04R FOG
6HR MIN TEMP:  64; 6HR MAX TEMP:  75;

PRAIRIE DU CHI CLEAR     68  62  80 SE3       30.02R
PLATTEVILLE    CLEAR     68  66  93 SE6       30.05R
$$

WIZ056-057-062-063-064-067-068-231300-
SOUTH CENTRAL WISCONSIN

CITY           SKY/WX    TMP DP  RH WIND       PRES   REMARKS
REEDSBURG      CLEAR     67  65  91 CALM      30.05R
BARABOO/DELLS  CLEAR     67  61  83 S5        30.05R
LONE ROCK      NOT AVBL
MINERAL POINT  CLEAR     68  66  94 CALM      30.06R
MADISON        PTCLDY    66  62  87 CALM      30.06R
6HR MIN TEMP:  65; 6HR MAX TEMP:  74;

MIDDLETON      CLEAR     65  63  93 CALM      30.06R
WATERTOWN      CLEAR     64  64 100 CALM      30.06R
MONROE         CLEAR     68  63  83 S7        30.06R
JANESVILLE     CLEAR     68  66  94 CALM      30.07R
$$

WIZ051-052-058>065-066-070>072-231300-
SOUTHEAST WISCONSIN

CITY           SKY/WX    TMP DP  RH WIND       PRES   REMARKS
MILWAUKEE      PTCLDY    75  65  70 SW6       30.06R
6HR MIN TEMP:  73; 6HR MAX TEMP:  78;

WAUKESHA       CLEAR     72  63  73 SW5       30.09R
MILWAUKEE/TIMM PTCLDY    68  61  77 CALM      30.08R
RACINE         CLEAR     75  66  73 SW6       30.09R
6HR MIN TEMP:  72; 6HR MAX TEMP:  77;

BURLINGTON     CLEAR     62  62 100 CALM      30.07R FOG
KENOSHA        CLEAR     69  64  84 CALM      30.08R
6HR MIN TEMP:  66; 6HR MAX TEMP:  74;

FOND DU LAC    CLEAR     69  63  81 S6        30.06R
6HR MIN TEMP:  67; 6HR MAX TEMP:  73;

SHEBOYGAN      CLEAR     64  64 100 CALM      30.07R FOG
6HR MIN TEMP:  63; 6HR MAX TEMP:  69;

WEST BEND        N/A     64  63  94 CALM      30.07R
JUNEAU         CLEAR     66  63  89 CALM      30.08R
$$

LSZ147-162-231300-
LAKE SUPERIOR

STATION/POSITION TIME  TEMP    WIND        PRES    WAVE
                       AIR SEA DIR/SP/G            HT/PER
                 (UTC) (F)     (DEG/KT/KT) (MB)    (FT/S)
W MID LAKE BUOY  1050   62 54  230/ 12/ 12 1011.4R   2/ 5
DEVILS ISLAND    1100   72     220/  7/  8 1011.2R
SAXON HARBOR     1140   78     190/ 10/ 14 1011.9R
$$

LMZ867-665-643>646-231300-
LAKE MICHIGAN

STATION/POSITION TIME  TEMP    WIND        PRES    WAVE
                       AIR SEA DIR/SP/G            HT/PER
                 (UTC) (F)     (DEG/KT/KT) (MB)    (FT/S)
S GREEN BAY BUOY 1130   70 67  190/  8/ 10 1016.3R
N MID LAKE BUOY  1050   68 66  190/ 10/ 12 1016.7R   2/ 4
NORTHPORT PIER   1140   68     140/  4/  5 1016.3R
KEWAUNEE LAKESHO 1130   64     190/  8/  9 1016.4R
SHEBOYGAN LAKESH 1100   69     180/  9/  9 1017.0R
PORT WASHINGTON  1130   71      CALM  /  4 1018.6R
ATWATER BUOY     1009   69 66  170/  6/  6 1017.5R
MILWAUKEE LAKESH 1140   78     230/  9/ 11   N/A
S MID LAKE BUOY  1050   72 70  140/  6/  6 1018.0R   0
KENOSHA   LAKESH 1100   75     190/  3/  7 1017.6
$$

TC  - TEMPERATURE IN CELSIUS
VSB - VISIBILITY IN STATUTE MILES
WCI - WIND CHILL INDEX
HX  - HEAT INDEX





USA.gov is the U.S. government's official web portal to all federal, state and local government web resources and services.